Home > Weather > Fall River > Past weeks

Flag for USA Weather for the Past 2 Weeks in Fall River, Massachusetts, USA

Now
57 °F

Overcast.


Feels Like: 55 °F
Forecast: 44 / 57 °F
Wind: 9 mph from Southwest

Location: New Bedford Regional Airport

Current Time: May 2, 2016 at 5:29:11 PM

Latest Report: May 2, 2016 at 4:53 PM


Visibility: 10 mi

Pressure: 29.84 "Hg

Humidity: 87%

Dew Point: 53 °F

Location of Fall RiverLocation

Historic Weather in Fall River — Graph

°F

Fall River Temperature Yesterday

Maximum temperature yesterday: 52 °F (at 10:53 AM)
Minimum temperature yesterday: 35 °F (at 2:53 AM)
Average temperature yesterday: 44 °F

High & Low Weather Summary for the Past Weeks

 TemperatureHumidityPressure
High75 °F (Apr 22, 11:53 AM)100% (Apr 23, 7:00 AM)30.30 "Hg (Apr 23, 7:00 AM)
Low33 °F (Apr 27, 5:53 AM)19% (Apr 24, 1:53 PM)29.71 "Hg (Apr 26, 11:53 AM)
Average49 °F66%30.03 "Hg
* Reported Apr 17 3:53 PM — May 2 3:53 PM, Fall River, Weather by CustomWeather, © 2016

Note: Actual official high and low records may vary slightly from our data, if they occured in-between our weather recording intervals... More about our weather records

Advertising

Fall River Weather History for the Previous 24 Hours

Scroll right to see more
 ConditionsComfort  
Time TempWeatherWind HumidityBarometerVisibility
3:53 PM
Mon, May 2
56 °FLow clouds.7 mph90%29.86 "Hg10 mi
2:53 PM57 °FOvercast.7 mph87%29.87 "Hg10 mi
1:53 PM56 °FMostly cloudy.3 mph90%29.90 "Hg10 mi
1:04 PM54 °FLight rain. Fog.6 mph93%29.95 "Hg3 mi
11:53 AM54 °FLow clouds.5 mph93%29.93 "Hg10 mi
10:53 AM53 °FFog.6 mph96%29.95 "Hg5 mi
10:04 AM52 °FFog.7 mph97%29.98 "Hg4 mi
9:53 AM51 °FFog.5 mph100%29.99 "Hg2 mi
8:53 AM51 °FFog.6 mph96%29.99 "Hg5 mi
7:53 AM49 °FFog.6 mph97%30.00 "Hg4 mi
6:53 AM49 °FFog.6 mph97%30.01 "Hg2 mi
5:53 AM48 °FFog.6 mph96%30.00 "Hg4 mi
4:53 AM48 °FFog.5 mph96%30.01 "Hg6 mi
3:53 AM47 °FLow clouds.5 mph100%30.03 "Hg10 mi
2:53 AM47 °FLow clouds.3 mph97%30.03 "Hg10 mi
1:53 AM46 °FLight rain. Fog.3 mph96%30.06 "Hg4 mi
12:53 AM45 °FLight rain. Fog.3 mph100%30.08 "Hg3 mi
11:53 PM
Sun, May 1
45 °FFog.5 mph100%30.09 "Hg4 mi
10:53 PM44 °FLight rain. Low clouds.3 mph96%30.13 "Hg8 mi
9:53 PM43 °FRain. Mostly cloudy.3 mph97%30.14 "Hg7 mi
8:53 PM43 °FLight rain. Overcast.3 mph97%30.16 "Hg7 mi
7:53 PM44 °FLight rain. Overcast.No wind82%30.17 "Hg10 mi
6:53 PM43 °FRain. Overcast.3 mph79%30.18 "Hg5 mi
5:53 PM45 °FLight rain. Mostly cloudy.9 mph65%30.20 "Hg10 mi
Weather by CustomWeather, © 2016

See weather overviewHow to use our weather pages